User: anonymous   Login
Location: Sawmill Trailhead
(33.5800°N, 116.4497°W)
Time: 08:25:55
(UTC-07:00)
Language:

Uosat F - Orbit

View from above orbital plane
View from above orbital plane
View from above satellite
View from above satellite

Ground track
Ground track

The orbit data is extracted from the following two-line orbital elements,

1 21575U 91050B   14294.49663527  .00000388  00000-0  13654-3 0  1507
2 21575 098.7149 272.8771 0006280 311.0852 159.3476 14.40451527221665
Epoch (UTC): 21 October 2014 11:55:09
Eccentricity: 0.0006280
inclination: 98.7149°
perigee height: 752 km
apogee height: 761 km
right ascension of ascending node: 272.8771°
argument of perigee: 311.0852°
revolutions per day: 14.40451527
mean anomaly at epoch: 159.3476°
orbit number at epoch: 22166

The dashed part of the orbit path shows where the satellite is in the earth's shadow,  

DLR